This demonstration page uses our WeatherBlox Daily Observations layout. Learn more.

Left ArrowRight Arrow

Hourly Observations for April 30, 2020

Temp ( °F °C ) Dew Point ( °F °C ) Humidity (%) Winds ( mph kmh ) Pressure ( in mb ) Visibility ( mi km ) Precip ( " mm )
12:54 am 00:54 Clear 53 11.7 42 5.6 66 66 NNW 7 11 30.07 1018 10 16.0934 0 0
1:54 am 01:54 Clear 47 8.3 40 4.4 77 77 NNW 5 7 30.07 1018 10 16.0934 0 0
2:54 am 02:54 Clear 51 10.6 41 5 69 69 NW 7 11 30.06 1018 10 16.0934 0 0
4:54 am 04:54 Clear 41 5 37 2.8 86 86 NNW 6 9 30.08 1019 10 16.0934 0 0
5:54 am 05:54 Clear 41 5 37 2.8 86 86 Calm 30.07 1018 10 16.0934 0 0
6:54 am 06:54 Sunny 43 6.1 37 2.8 80 80 Calm 30.07 1018 10 16.0934 0 0
7:54 am 07:54 Sunny 50 10 40 4.4 68 68 Calm 30.07 1018 10 16.0934 0 0
8:54 am 08:54 Sunny 55 12.8 43 6.1 64 64 Calm 30.09 1019 10 16.0934 0 0
10:54 am 10:54 Sunny 65 18.3 41 5 42 42 Calm 30.07 1018 10 16.0934 0 0
11:54 am 11:54 Sunny 66 18.9 40 4.4 39 39 SW 5 7 30.05 1018 10 16.0934 0 0
12:54 pm 12:54 Sunny 69 20.6 42 5.6 38 38 SSE 8 13 30.02 1017 10 16.0934 0 0
1:54 pm 13:54 Sunny 71 21.7 41 5 34 34 VRB 3 6 30 1016 10 16.0934 0 0
2:54 pm 14:54 Sunny 73 22.8 38 3.3 28 28 W 7 11 29.96 1015 10 16.0934 0 0
3:54 pm 15:54 Sunny 75 23.9 37 2.8 25 25 Calm 29.93 1014 10 16.0934 0 0
4:54 pm 16:54 Sunny 75 23.9 37 2.8 25 25 Calm 29.91 1013 10 16.0934 0 0
5:54 pm 17:54 Sunny 75 23.9 39 3.9 27 27 S 6 9 29.89 1012 10 16.0934 0 0
6:54 pm 18:54 Sunny 74 23.3 39 3.9 28 28 SSE 9 15 29.87 1011 10 16.0934 0 0
7:54 pm 19:54 Sunny 70 21.1 39 3.9 32 32 SSE 12 19 29.86 1011 10 16.0934 0 0
8:54 pm 20:54 Clear 67 19.4 39 3.9 36 36 SSE 10 17 29.86 1011 10 16.0934 0 0
9:54 pm 21:54 Clear 65 18.3 39 3.9 39 39 SSE 12 19 29.85 1011 10 16.0934 0 0
10:54 pm 22:54 Clear 60 15.6 40 4.4 47 47 S 10 17 29.86 1011 10 16.0934 0 0
11:54 pm 23:54 Clear 60 15.6 41 5 50 50 S 10 17 29.85 1011 10 16.0934 0 0

Powered by AerisWeather